Home   Weather   Osterode am Harz   Past weeks

Flag for Germany Past Weather in Osterode am Harz, Lower Saxony, Germany — Yesterday and Last 2 Weeks

Now
39 °F

Clear.


Feels Like: 39 °F
Forecast: 29 / 49 °F
Wind: 2 mph from North

Location: Braunschweig Wolfsburg

Current Time: Apr 26, 2017 at 11:45:22 pm

Latest Report: Apr 26, 2017 at 10:20 pm


Visibility: 10 mi

Pressure: 29.92 "Hg

Humidity: 81%

Dew Point: 34 °F

Location of Osterode am HarzLocation

Past Weather in Osterode am Harz — Graph

°F

Osterode am Harz Temperature Yesterday

Maximum temperature yesterday: 52 °F (at 3:20 pm)
Minimum temperature yesterday: 39 °F (at 6:50 am)
Average temperature yesterday: 45 °F

High & Low Weather Summary for the Past Weeks

 TemperatureHumidityPressure
High57 °F (Apr 12, 1:50 pm)100% (Apr 12, 6:50 pm)30.60 "Hg (Apr 12, 6:50 pm)
Low25 °F (Apr 20, 6:50 am)32% (Apr 26, 3:50 pm)29.62 "Hg (Apr 25, 6:20 am)
Average46 °F69%30.08 "Hg
* Reported Apr 12 6:50 am — Apr 26 10:20 pm, Osterode am Harz, Weather by CustomWeather, © 2017

Note: Actual official high and low records may vary slightly from our data, if they occured in-between our weather recording intervals... More about our weather records

Advertising

Osterode am Harz Weather History for the Previous 24 Hours

Scroll right to see more
 ConditionsComfort  
Time TempWeatherWind HumidityBarometerVisibility
10:20 pm
Wed, Apr 26
39 °FClear.2 mph81%29.92 "Hg10 mi
9:20 pm41 °FClear.No wind70%29.92 "Hg10 mi
8:50 pm43 °FClear.3 mph66%29.89 "Hg10 mi
7:50 pm48 °FPassing clouds.8 mph46%29.89 "HgN/A
7:20 pm48 °FPassing clouds.6 mph46%29.89 "HgN/A
6:50 pm46 °FPassing clouds.9 mph53%29.89 "HgN/A
6:20 pm48 °FPassing clouds.8 mph50%29.89 "HgN/A
5:50 pm50 °FSunny.10 mph40%29.86 "Hg10 mi
5:20 pm50 °FSunny.8 mph40%29.86 "Hg10 mi
4:50 pm52 °FSunny.9 mph38%29.86 "Hg10 mi
4:20 pm52 °FPassing clouds.9 mph41%29.86 "HgN/A
3:50 pm52 °FPassing clouds.9 mph32%29.86 "HgN/A
3:20 pm54 °FPassing clouds.7 mph41%29.86 "HgN/A
2:50 pm50 °FPassing clouds.6 mph37%29.86 "HgN/A
2:20 pm50 °FBroken clouds.8 mph54%29.86 "HgN/A
1:50 pm50 °FPassing clouds.8 mph54%29.86 "HgN/A
1:20 pm48 °FPartly sunny.13 mph54%29.86 "HgN/A
12:50 pm48 °FBroken clouds.7 mph54%29.86 "HgN/A
12:20 pm46 °FScattered clouds.8 mph57%29.86 "HgN/A
11:50 am48 °FScattered clouds.8 mph62%29.86 "HgN/A
11:20 am45 °FBroken clouds.7 mph76%29.86 "HgN/A
10:50 am45 °FBroken clouds.6 mph76%29.86 "HgN/A
10:20 am46 °FBroken clouds.8 mph71%29.86 "HgN/A
9:50 am43 °FPassing clouds.7 mph81%29.86 "HgN/A
9:20 am43 °FPassing clouds.8 mph87%29.86 "HgN/A
8:50 am41 °FPassing clouds.8 mph87%29.86 "HgN/A
8:20 am39 °FSunny.7 mph93%29.86 "Hg10 mi
7:50 am37 °FSunny.5 mph100%29.83 "Hg10 mi
7:20 am36 °FSunny.5 mph100%29.83 "Hg10 mi
6:50 am36 °FSunny.1 mph93%29.83 "Hg10 mi
5:50 am34 °FClear.No wind100%29.83 "Hg10 mi
Weather by CustomWeather, © 2017

See weather overviewHow to use our weather pages